sat.trackr.live / text

‹ back to catalog

HULIANWANG DIGUI-88

NORAD 65996 · 2025-231B

PAYLOAD ACTIVE UNKNOWN

§ Identity

Operator
Country
PRC
Launch date
2025-10-16
Launch site
WSC
Launch vehicle
Mass (kg)
RCS (m²)

External: N2YO · Heavens-Above · Gunter

§ Orbital elements

Epoch: 2026-05-25T00:26:11.956416Z

Period
108.33 min
Inclination
49.9995°
Eccentricity
0.0000930
Mean motion
13.29328353 rev/d
Perigee alt
1,148.6 km
Apogee alt
1,150.0 km
Semi-major
7,527.4 km
B*
3.7004e-5
RAAN
258.9959°
Arg perigee
149.9106°
Mean anomaly
210.1819°
Rev number
2,980

§ Raw data

HULIANWANG DIGUI-881 65996U 25231B   26145.01819394 -.00000107  00000+0  37004-4 0  99972 65996  49.9995 258.9959 0000930 149.9106 210.1819 13.29328353 29801

JSON: /api/v1/satellites/65996 · /tle

For live sub-satellite position, see the globe view (requires WebGL).

§ Visibility from observer

Set your observer location to see the next 7 days of passes ≥ 10°. The values pass through the URL so the page stays shareable.

No JS? Fill the form by hand. The geolocation button needs JavaScript.